Weather History for KYNG - March, 2013

Change the Weather History Date:

Tuesday, March 19, 2013

  Actual Average Record
Temperature  
Mean Temperature 34 °F 38 °F  
Max Temperature 40 °F 47 °F 77 °F (1898)
Min Temperature 27 °F 29 °F 3 °F (1967)
Degree Days  
Heating Degree Days 31 27  
Month to date heating degree days 591 580  
Since 1 July heating degree days 5033 5228  
Cooling Degree Days 0 0  
Month to date cooling degree days 0 0  
Year to date cooling degree days 0 0  
Moisture  
Dew Point 22 °F    
Average Humidity 79    
Maximum Humidity 100    
Minimum Humidity 58    
Precipitation  
Precipitation 0.04 in 0.09 in 1.03 in (2008)
Month to date precipitation 1.71 1.70  
Year to date precipitation 6.01 6.40  
Snow  
Snow 0.20 in 0.40 in - ()
Month to date snowfall 8.8 7.6  
Since 1 July snowfall 69.2 56.4  
Snow Depth 0.00 in    
Sea Level Pressure  
Sea Level Pressure 29.81 in    
Wind  
Wind Speed 16 mph (WSW)    
Max Wind Speed 29 mph    
Max Gust Speed 40 mph    
Visibility 8 miles    
Events Rain , Snow    
T = Trace of Precipitation, MM = Missing Value Source: NWS Daily Summary

Daily Weather History Graph

Daily Weather History Graph

Search for Another Location

Airport or City:

Trip Planner

Search our weather history database for the weather conditions in past years. The results will help you decide how hot, cold, wet, or windy it might be!

Date:

Astronomy

Mar. 19, 2013 Rise Set
Actual Time 7:27 AM EDT 7:34 PM EDT
Civil Twilight 6:59 AM EDT 8:01 PM EDT
Nautical Twilight 6:27 AM EDT 8:33 PM EDT
Astronomical Twilight 5:54 AM EDT 9:06 PM EDT
Moon 12:12 PM EDT (3/19) 2:23 AM EDT (3/19)
Length of Visible Light 13h 01m
Length of Day
12h 06m
Waxing Crescent, 49% of the Moon is Illuminated
Mar 19
Waxing Crescent
Mar 19
First Quarter
Mar 27
Full
Apr 3
Last Quarter
Apr 10
New

Hourly Weather History & Observations

Time (EDT) Temp. Windchill Dew Point Humidity Pressure Visibility Wind Dir Wind Speed Gust Speed Precip Events Conditions
12:51 AM 37.9 °F 32.7 °F 37.0 °F 97% 29.69 in 5.0 mi WSW 6.9 mph - 0.01 in Rain Light Rain
1:51 AM 39.0 °F 32.3 °F 36.0 °F 89% 29.70 in 10.0 mi West 10.4 mph - 0.01 in Rain Light Rain
2:51 AM 36.0 °F 26.3 °F 33.1 °F 89% 29.74 in 7.0 mi West 16.1 mph 31.1 mph 0.01 in Rain Light Rain
3:29 AM 35.6 °F 27.5 °F 30.2 °F 81% 29.72 in 10.0 mi WSW 11.5 mph - 0.00 in   Overcast
3:51 AM 35.1 °F 26.4 °F 28.9 °F 78% 29.75 in 10.0 mi West 12.7 mph 23.0 mph 0.00 in   Overcast
4:51 AM 34.0 °F 28.8 °F 28.0 °F 79% 29.75 in 9.0 mi SW 5.8 mph - 0.00 in Snow Light Snow
5:51 AM 35.1 °F 30.1 °F 28.9 °F 78% 29.75 in 9.0 mi SSW 5.8 mph - 0.00 in Snow Light Snow
5:59 AM 35.6 °F 29.2 °F 28.4 °F 75% 29.72 in 9.0 mi SW 8.1 mph - 0.00 in   Overcast
6:51 AM 35.1 °F 25.5 °F 25.0 °F 67% 29.76 in 10.0 mi SW 15.0 mph 27.6 mph 0.00 in   Mostly Cloudy
7:51 AM 34.0 °F 23.4 °F 23.0 °F 64% 29.76 in 10.0 mi WSW 17.3 mph 33.4 mph N/A   Overcast
8:51 AM 33.1 °F 24.4 °F 24.1 °F 70% 29.77 in 10.0 mi WSW 11.5 mph - N/A   Overcast
9:06 AM 32.0 °F 21.6 °F 23.0 °F 69% 29.74 in 10.0 mi West 15.0 mph 20.7 mph N/A   Overcast
9:51 AM 30.9 °F 18.7 °F 19.9 °F 64% 29.78 in 10.0 mi WSW 19.6 mph 31.1 mph N/A   Overcast
10:51 AM 30.0 °F 18.3 °F 19.9 °F 66% 29.79 in 10.0 mi WSW 17.3 mph 27.6 mph N/A   Overcast
11:51 AM 28.0 °F 13.0 °F 17.1 °F 63% 29.82 in 9.0 mi West 26.5 mph 35.7 mph 0.00 in Snow Light Snow
12:32 PM 28.4 °F 18.0 °F 17.6 °F 64% 29.78 in 10.0 mi WSW 12.7 mph 26.5 mph 0.00 in Snow Light Snow
12:51 PM 28.0 °F 15.7 °F 18.0 °F 66% 29.82 in 9.0 mi WSW 17.3 mph 32.2 mph 0.00 in Snow Light Snow
1:08 PM 28.4 °F 17.0 °F 19.4 °F 69% 29.79 in 7.0 mi West 15.0 mph 26.5 mph 0.00 in Snow Light Snow
1:32 PM 30.2 °F 17.1 °F 19.4 °F 64% 29.79 in 9.0 mi WSW 21.9 mph 35.7 mph 0.00 in Snow Light Snow
1:51 PM 30.0 °F 17.9 °F 19.0 °F 64% 29.82 in 8.0 mi WSW 18.4 mph 29.9 mph 0.00 in Snow Light Snow
2:51 PM 28.9 °F 16.5 °F 19.9 °F 69% 29.83 in 7.0 mi West 18.4 mph 28.8 mph 0.00 in Snow Light Snow
3:07 PM 28.4 °F 14.4 °F 19.4 °F 69% 29.80 in 1.5 mi West 23.0 mph 35.7 mph 0.00 in Snow Light Snow
3:14 PM 28.4 °F 15.4 °F 21.2 °F 74% 29.80 in 7.0 mi WSW 19.6 mph 26.5 mph 0.00 in Snow Light Snow
3:51 PM 28.9 °F 14.5 °F 21.0 °F 72% 29.85 in 1.0 mi West 25.3 mph 34.5 mph 0.00 in Snow Light Snow
4:03 PM 28.4 °F 15.8 °F 21.2 °F 74% 29.82 in 7.0 mi WSW 18.4 mph 28.8 mph 0.00 in Snow Light Snow
4:10 PM 28.4 °F 14.7 °F 21.2 °F 74% 29.82 in 1.5 mi WSW 21.9 mph 31.1 mph 0.00 in Snow Light Snow
4:20 PM 28.4 °F 16.2 °F 21.2 °F 74% 29.82 in 7.0 mi WSW 17.3 mph 24.2 mph 0.00 in Snow Light Snow
4:51 PM 30.0 °F 17.2 °F 17.1 °F 59% 29.87 in 9.0 mi West 20.7 mph 28.8 mph N/A Snow Light Snow
5:51 PM 30.0 °F 18.7 °F 17.1 °F 59% 29.89 in 9.0 mi WSW 16.1 mph 31.1 mph 0.00 in Snow Light Snow
6:51 PM 28.0 °F 17.0 °F 19.0 °F 69% 29.91 in 3.0 mi West 13.8 mph 24.2 mph 0.00 in Snow Light Snow
7:51 PM 28.9 °F 17.3 °F 17.1 °F 61% 29.91 in 9.0 mi West 16.1 mph 25.3 mph N/A   Overcast
8:51 PM 28.9 °F 16.1 °F 17.1 °F 61% 29.93 in 9.0 mi West 19.6 mph 32.2 mph 0.00 in Snow Light Snow
9:51 PM 28.9 °F 16.9 °F 16.0 °F 58% 29.94 in 9.0 mi West 17.3 mph 27.6 mph 0.00 in Snow Light Snow
10:51 PM 28.9 °F 17.7 °F 17.1 °F 61% 29.95 in 9.0 mi West 15.0 mph 23.0 mph 0.00 in   Overcast
11:51 PM 28.0 °F 17.5 °F 17.1 °F 63% 29.95 in 10.0 mi West 12.7 mph 19.6 mph N/A   Mostly Cloudy